THOR ABLESTAR DEB, 178

Orbit data source: Space-Track

THOR ABLESTAR DEB, 178 is space debris in LEO originally from a launch on Thu, 29 Jun 1961 UTC launched from the Air Force Eastern Test Range (AFETR). Debris objects in space refer to the collection of defunct objects orbiting the Earth. Examples of debris include non-operational satellites, rocket bodies, and fragments generated from explosions, collisions, or faulty payload assembly.

Loading next visibility...
Identifier
178, 1961-015BC
Orbit
LEO
Country
Flag of USUS
Related business
Manufacturer
Unknown
Mission
Spacecraft
Bus & Motor
Unknown
Mass
Unknown
Launch date (UTC)
1961-06-29 (64 years ago)
Launch vehicle
Unknown
Launch site
Air Force Eastern Test Range (AFETR)
Object type
Payload
Rocket body
Debris
Shape & HBR
Unknown shape, 0.1 m
Radar Cross Section
Small (<0.1 m²)

Expand to show TLE details & history
Last TLE update: 7 hours ago

TLE from 7 hours ago
0 THOR ABLESTAR DEB
1 00178U 61015BC  25286.91847952  .00000093  00000-0  12684-3 0  9993
2 00178  66.8643 242.5703 0079068 176.7145 183.4471 13.92986721262944
Epoch: 2025-10-13T22:02Z
TLE epoch observation values (Epoch: 2025-10-13T22:02:36.630Z)
Latitude
-0.0001°
Longitude
-110.79673°
Altitude
977.86 km
Speed
7.334 km/s
True Right ascension
16h 10m 16s
True Declination
0° 00' 00"
Sunlit
Object was in daylight at epoch
Visualization orbit readout
Latitude
Unknown
Longitude
Unknown
Altitude
Unknown
Speed
Unknown
Apparent Right ascension
Unknown
Apparent Declination
Unknown
Sunlit
N/A
Visualization observer readout
Local Sidereal Time
00:04:02
Azimuth
Unknown
Elevation
Unknown
Doppler factor
Unknown
Orbital elements
Apogee altitude
974.245 km
Perigee altitude
858.889 km
Semi-major axis
7,294.704 km
Eccentricity
0.00791
Inclination
66.8643°
RAAN
242.5703°
Arg. of periapsis
176.7145°
True anomaly
183.39315°
Mean anomaly
183.4471°
Eccentric anomaly
183.42007°
Mean motion
3.48363 °/min
Orbital period
103.34 mins
BSTAR
0.00012684
Loading maneuver chart data...
Computing Atmospheric mass density...
Loading historical data...
Loading historical data...
Loading historical data...
Loading historical data...
Loading historical data...
Loading historical data...
Loading historical data...

Documentation

Showing up to 5 results
|